QPF
0.00 0.00 0.00 0.00 0.00 0.00 0.00 0.00 0.00 0.00 0.00 0.00 0.00 0.00 0.00 0.00 0.00 0.00 0.00 0.00 0.00 0.00 0.00 0.00 0.00 0.01 0.00 0.00 0.00 0.00 0.00 0.00 0.00 0.00 0.00 0.00 0.00 0.00 0.00 0.02 0.00 0.00 0.00 0.00 0.00 0.00 0.00
0.01 0.01 0.00 0.00 0.00 0.00 0.00 0.00 0.00 0.00 0.00 0.00 0.00 0.00 0.00 0.00 0.00 0.00 0.00 0.00 0.00 0.00 0.00 0.00 0.00 0.00 0.00 0.00 0.01 0.00 0.00 0.00 0.00 0.00 0.00 0.00 0.00 0.00 0.00 0.01 0.00 0.00 0.00 0.00 0.00 0.00 0.00
0.01 0.01 0.01 0.01 0.00 0.00 0.00 0.00 0.00 0.00 0.00 0.00 0.00 0.00 0.00 0.00 0.00 0.00 0.00 0.00 0.00 0.00 0.00 0.00 0.00 0.00 0.00 0.00 0.00 0.00 0.00 0.00 0.00 0.00 0.00 0.00 0.00 0.00 0.00 0.00 0.00 0.00 0.00 0.00 0.00 0.00 0.00
0.01 0.01 0.01 0.00 0.00 0.00 0.00 0.00 0.00 0.00 0.00 0.00 0.00 0.00 0.00 0.00 0.00 0.00 0.00 0.00 0.00 0.00 0.00 0.00 0.00 0.00 0.00 0.00 0.00 0.00 0.00 0.00 0.00 0.00 0.00 0.00 0.00 0.00 0.00 0.00 0.00 0.00 0.00 0.00 0.00 0.00 0.00
0.00 0.00 0.00 0.00 0.00 0.00 0.00 0.00 0.00 0.00 0.00 0.00 0.00 0.00 0.00 0.00 0.00 0.00 0.00 0.00 0.00 0.00 0.00 0.00 0.00 0.00 0.00 0.00 0.00 0.00 0.00 0.00 0.00 0.00 0.00 0.00 0.00 0.00 0.00 0.00 0.00 0.00 0.00 0.00 0.00 0.00 0.00
0.01 0.00 0.00 0.00 0.00 0.00 0.00 0.00 0.00 0.00 0.00 0.00 0.00 0.00 0.00 0.00 0.00 0.00 0.00 0.00 0.00 0.00 0.00 0.00 0.00 0.00 0.00 0.00 0.00 0.00 0.00 0.00 0.00 0.00 0.00 0.00 0.00 0.00 0.00 0.00 0.00 0.00 0.00 0.00 0.00 0.00 0.00
0.01 0.01 0.01 0.01 0.00 0.00 0.00 0.00 0.00 0.00 0.00 0.00 0.00 0.00 0.00 0.00 0.00 0.00 0.00 0.00 0.00 0.00 0.00 0.00 0.00 0.00 0.00 0.00 0.00 0.00 0.00 0.00 0.00 0.00 0.00 0.00 0.00 0.00 0.00 0.00 0.00 0.00 0.00 0.00 0.00 0.00 0.00
0.01 0.01 0.01 0.01 0.01 0.01 0.01 0.00 0.00 0.00 0.00 0.00 0.00 0.00 0.00 0.00 0.00 0.00 0.00 0.00 0.00 0.00 0.00 0.00 0.00 0.00 0.00 0.00 0.00 0.00 0.00 0.00 0.00 0.00 0.00 0.00 0.00 0.00 0.00 0.00 0.00 0.00 0.00 0.00 0.00 0.00 0.00
0.00 0.00 0.01 0.01 0.01 0.01 0.01 0.01 0.01 0.00 0.00 0.00 0.00 0.00 0.00 0.00 0.00 0.00 0.00 0.00 0.00 0.00 0.00 0.00 0.00 0.00 0.00 0.00 0.00 0.00 0.00 0.00 0.00 0.00 0.00 0.00 0.00 0.00 0.00 0.00 0.00 0.00 0.00 0.00 0.00 0.00 0.00
0.00 0.00 0.00 0.01 0.01 0.01 0.01 0.00 0.01 0.01 0.00 0.00 0.00 0.00 0.00 0.00 0.00 0.00 0.00 0.00 0.00 0.00 0.00 0.00 0.00 0.00 0.00 0.00 0.00 0.00 0.00 0.00 0.00 0.00 0.00 0.00 0.00 0.00 0.00 0.00 0.00 0.00 0.00 0.00 0.00 0.00 0.00
0.00 0.00 0.01 0.01 0.00 0.00 0.00 0.00 0.01 0.01 0.00 0.00 0.00 0.00 0.00 0.00 0.00 0.00 0.00 0.00 0.00 0.00 0.00 0.00 0.00 0.00 0.00 0.00 0.00 0.00 0.00 0.00 0.00 0.00 0.00 0.00 0.00 0.00 0.00 0.00 0.00 0.00 0.00 0.00 0.00 0.00 0.00
0.01 0.00 0.01 0.01 0.00 0.01 0.00 0.00 0.01 0.00 0.00 0.00 0.00 0.00 0.00 0.00 0.00 0.00 0.00 0.00 0.00 0.00 0.00 0.00 0.00 0.00 0.00 0.00 0.00 0.00 0.00 0.00 0.00 0.00 0.00 0.00 0.00 0.00 0.00 0.00 0.00 0.00 0.00 0.00 0.00 0.00 0.00
0.00 0.00 0.01 0.00 0.00 0.01 0.01 0.01 0.00 0.00 0.00 0.00 0.00 0.00 0.00 0.00 0.00 0.00 0.00 0.00 0.00 0.00 0.00 0.00 0.00 0.00 0.00 0.00 0.00 0.00 0.00 0.00 0.00 0.00 0.00 0.00 0.00 0.00 0.00 0.00 0.00 0.00 0.00 0.00 0.00 0.00 0.00
0.00 0.00 0.00 0.00 0.01 0.01 0.01 0.01 0.01 0.01 0.00 0.00 0.00 0.00 0.00 0.00 0.00 0.00 0.00 0.00 0.00 0.00 0.00 0.00 0.00 0.00 0.00 0.00 0.00 0.00 0.00 0.00 0.00 0.00 0.00 0.00 0.00 0.00 0.00 0.00 0.00 0.00 0.00 0.00 0.00 0.00 0.00
0.00 0.00 0.00 0.01 0.02 0.02 0.02 0.01 0.01 0.01 0.01 0.01 0.01 0.00 0.00 0.00 0.00 0.00 0.00 0.00 0.00 0.00 0.00 0.00 0.00 0.00 0.00 0.00 0.00 0.00 0.00 0.00 0.00 0.00 0.00 0.00 0.00 0.00 0.00 0.00 0.00 0.00 0.00 0.00 0.00 0.00 0.00
0.00 0.00 0.00 0.00 0.01 0.01 0.02 0.01 0.01 0.01 0.01 0.03 0.03 0.01 0.00 0.00 0.00 0.00 0.00 0.00 0.00 0.00 0.00 0.00 0.00 0.00 0.00 0.00 0.00 0.00 0.00 0.00 0.00 0.00 0.00 0.00 0.00 0.00 0.00 0.00 0.00 0.00 0.00 0.00 0.00 0.00 0.00
0.00 0.00 0.00 0.00 0.00 0.01 0.01 0.01 0.01 0.02 0.01 0.04 0.05 0.03 0.00 0.00 0.00 0.00 0.00 0.00 0.00 0.00 0.00 0.00 0.00 0.00 0.00 0.00 0.00 0.00 0.00 0.00 0.00 0.00 0.00 0.00 0.00 0.00 0.00 0.00 0.00 0.00 0.00 0.00 0.00 0.00 0.00
0.00 0.00 0.00 0.00 0.00 0.00 0.00 0.01 0.02 0.03 0.06 0.06 0.10 0.08 0.01 0.00 0.00 0.00 0.00 0.00 0.00 0.00 0.00 0.00 0.00 0.00 0.00 0.00 0.00 0.00 0.00 0.00 0.00 0.00 0.00 0.00 0.00 0.00 0.00 0.00 0.00 0.00 0.00 0.00 0.00 0.00 0.00
0.00 0.00 0.00 0.00 0.00 0.00 0.01 0.01 0.01 0.05 0.17 0.30 0.27 0.14 0.06 0.05 0.01 0.00 0.00 0.00 0.00 0.00 0.00 0.00 0.00 0.00 0.00 0.00 0.00 0.00 0.00 0.00 0.00 0.00 0.00 0.00 0.00 0.00 0.00 0.00 0.00 0.00 0.00 0.00 0.00 0.00 0.00
0.00 0.00 0.00 0.00 0.00 0.00 0.01 0.01 0.02 0.06 0.12 0.25 0.33 0.24 0.17 0.24 0.06 0.00 0.00 0.00 0.00 0.00 0.00 0.00 0.00 0.00 0.00 0.00 0.00 0.00 0.00 0.00 0.00 0.00 0.00 0.00 0.00 0.00 0.00 0.00 0.00 0.00 0.00 0.00 0.00 0.00 0.00
0.00 0.00 0.00 0.00 0.00 0.00 0.00 0.01 0.02 0.04 0.08 0.12 0.26 0.24 0.13 0.23 0.15 0.01 0.00 0.00 0.00 0.00 0.00 0.00 0.00 0.00 0.00 0.00 0.00 0.00 0.00 0.00 0.00 0.00 0.00 0.00 0.00 0.00 0.00 0.00 0.00 0.00 0.00 0.00 0.00 0.00 0.00
0.01 0.00 0.00 0.01 0.01 0.01 0.01 0.00 0.01 0.02 0.06 0.13 0.39 0.44 0.30 0.23 0.14 0.05 0.00 0.00 0.00 0.00 0.00 0.00 0.00 0.00 0.00 0.00 0.00 0.00 0.00 0.00 0.00 0.00 0.00 0.00 0.00 0.00 0.00 0.00 0.00 0.00 0.00 0.00 0.00 0.00 0.00
0.01 0.00 0.00 0.01 0.01 0.01 0.01 0.01 0.00 0.02 0.09 0.20 0.26 0.31 0.42 0.19 0.14 0.16 0.06 0.00 0.00 0.00 0.00 0.00 0.00 0.00 0.00 0.00 0.00 0.00 0.00 0.00 0.00 0.00 0.00 0.00 0.00 0.00 0.00 0.00 0.00 0.00 0.00 0.00 0.00 0.00 0.00
0.02 0.01 0.02 0.01 0.01 0.01 0.01 0.01 0.01 0.02 0.06 0.22 0.24 0.31 0.25 0.17 0.12 0.12 0.10 0.02 0.00 0.00 0.00 0.00 0.00 0.00 0.00 0.00 0.00 0.00 0.00 0.00 0.00 0.00 0.00 0.00 0.00 0.00 0.00 0.00 0.00 0.00 0.00 0.00 0.00 0.00 0.00
0.02 0.03 0.03 0.02 0.02 0.01 0.00 0.00 0.01 0.01 0.02 0.09 0.14 0.26 0.22 0.14 0.08 0.07 0.11 0.08 0.01 0.00 0.00 0.00 0.00 0.00 0.00 0.00 0.00 0.00 0.00 0.00 0.00 0.00 0.00 0.00 0.00 0.00 0.00 0.00 0.00 0.00 0.00 0.00 0.00 0.00 0.00
0.02 0.02 0.02 0.03 0.03 0.02 0.01 0.01 0.01 0.01 0.01 0.03 0.05 0.12 0.30 0.23 0.04 0.06 0.11 0.11 0.07 0.02 0.00 0.00 0.00 0.00 0.00 0.00 0.00 0.00 0.00 0.00 0.00 0.00 0.00 0.00 0.00 0.00 0.00 0.00 0.00 0.00 0.00 0.00 0.00 0.00 0.00
0.01 0.01 0.02 0.04 0.04 0.01 0.01 0.01 0.01 0.01 0.02 0.03 0.01 0.08 0.24 0.17 0.02 0.06 0.11 0.07 0.05 0.04 0.03 0.00 0.00 0.00 0.00 0.00 0.00 0.00 0.00 0.00 0.00 0.00 0.00 0.00 0.00 0.00 0.00 0.00 0.00 0.00 0.00 0.00 0.00 0.00 0.00
0.02 0.02 0.04 0.04 0.03 0.01 0.00 0.02 0.02 0.01 0.01 0.02 0.01 0.01 0.09 0.14 0.02 0.02 0.06 0.09 0.05 0.03 0.02 0.03 0.05 0.02 0.00 0.00 0.00 0.00 0.00 0.00 0.00 0.00 0.00 0.00 0.00 0.00 0.00 0.00 0.00 0.00 0.00 0.00 0.00 0.00 0.00
0.03 0.04 0.03 0.02 0.02 0.01 0.01 0.01 0.04 0.03 0.01 0.01 0.01 0.01 0.06 0.24 0.08 0.01 0.03 0.05 0.06 0.04 0.04 0.01 0.06 0.03 0.00 0.00 0.00 0.00 0.00 0.00 0.00 0.00 0.00 0.00 0.00 0.00 0.00 0.00 0.00 0.00 0.00 0.00 0.00 0.00 0.00
MSLP
1022.42 1022.16 1021.76 1021.56 1021.30 1020.95 1020.57 1020.26 1019.93 1019.63 1019.14 1018.66 1018.32 1017.96 1017.72 1017.62 1017.49 1017.03 1016.57 1016.30 1016.17 1016.12 1016.13 1016.03 1015.70 1015.69 1016.12 1016.26 1015.46 1014.46 1013.97 1013.92 1014.41 1015.10 1015.39 1015.54 1015.70 1015.78 1016.75 1017.27 1017.94 1018.96 1017.68 1017.76 1017.46 1017.28 1017.29
1022.60 1022.35 1022.12 1021.61 1021.31 1020.95 1020.59 1020.33 1020.00 1019.55 1019.09 1018.61 1018.24 1017.84 1017.49 1017.19 1017.21 1016.93 1016.62 1015.98 1015.88 1015.95 1016.02 1015.99 1015.67 1015.75 1016.01 1015.69 1014.03 1014.00 1013.81 1014.19 1014.57 1015.06 1015.26 1015.24 1014.94 1014.99 1016.09 1016.49 1016.76 1017.35 1017.50 1017.86 1017.70 1017.64 1017.61
1022.84 1022.41 1022.15 1021.88 1021.40 1021.09 1020.65 1020.22 1019.87 1019.50 1019.04 1018.59 1018.05 1017.63 1017.31 1016.91 1016.71 1016.58 1016.49 1015.75 1015.49 1015.66 1015.83 1015.93 1015.68 1015.79 1016.01 1014.72 1013.72 1013.69 1013.76 1014.05 1014.40 1014.73 1014.90 1014.74 1014.69 1014.96 1015.35 1016.63 1017.04 1017.83 1018.34 1018.22 1018.11 1017.85 1017.88
1022.93 1022.46 1022.14 1021.85 1021.43 1021.01 1020.72 1020.32 1019.96 1019.49 1019.03 1018.55 1018.28 1017.72 1017.16 1016.80 1016.30 1016.14 1016.28 1015.72 1015.43 1015.30 1015.49 1015.69 1015.84 1015.88 1015.48 1013.88 1013.84 1013.74 1013.68 1014.09 1014.37 1014.51 1014.35 1014.33 1014.56 1015.35 1015.81 1016.91 1017.85 1018.38 1018.73 1018.50 1017.89 1018.00 1018.13
1022.98 1022.53 1022.27 1021.96 1021.51 1021.07 1020.63 1020.27 1019.95 1019.52 1019.11 1018.65 1018.03 1017.61 1017.22 1016.75 1016.26 1015.65 1015.71 1015.81 1014.73 1014.90 1015.15 1015.56 1016.06 1015.85 1014.77 1013.59 1013.68 1013.33 1013.40 1013.94 1014.32 1014.42 1014.31 1014.39 1014.68 1015.79 1016.63 1017.06 1018.37 1018.65 1018.13 1018.01 1017.98 1018.06 1018.08
1022.87 1022.34 1022.04 1021.75 1021.34 1020.94 1020.47 1020.01 1019.75 1019.36 1018.92 1018.57 1018.27 1017.57 1017.03 1016.68 1016.36 1015.55 1015.12 1015.19 1014.73 1014.33 1014.83 1015.48 1015.83 1016.11 1014.28 1013.46 1013.12 1013.12 1013.39 1013.63 1014.05 1014.30 1014.48 1014.71 1015.47 1016.13 1016.86 1017.06 1017.00 1017.44 1017.49 1017.60 1017.73 1017.94 1018.16
1023.29 1022.79 1022.20 1021.72 1021.25 1020.79 1020.40 1020.03 1019.55 1019.01 1018.74 1018.40 1018.01 1017.62 1017.03 1016.51 1016.21 1016.03 1015.03 1015.06 1015.45 1014.85 1014.72 1014.19 1014.44 1014.14 1013.49 1013.26 1013.06 1013.20 1013.28 1013.51 1013.81 1014.20 1014.52 1014.91 1015.58 1015.77 1016.19 1016.36 1016.03 1016.39 1016.57 1017.25 1017.60 1017.78 1018.11
1023.40 1023.04 1022.56 1021.98 1021.55 1021.12 1020.37 1019.69 1019.40 1019.04 1018.37 1017.97 1017.71 1017.40 1017.02 1016.40 1016.07 1015.99 1016.01 1014.97 1014.51 1013.74 1013.68 1013.23 1013.35 1013.56 1013.17 1013.05 1013.27 1013.16 1013.12 1013.62 1013.78 1014.39 1014.80 1015.52 1015.37 1015.51 1015.75 1016.25 1016.13 1016.45 1016.69 1017.43 1017.91 1018.00 1018.24
1023.58 1023.12 1022.71 1022.21 1021.84 1021.33 1020.80 1020.05 1019.25 1018.65 1018.30 1017.81 1017.31 1017.03 1016.70 1016.17 1015.50 1015.51 1015.84 1014.44 1013.84 1014.03 1013.73 1012.58 1012.64 1012.72 1012.84 1013.20 1012.97 1012.81 1013.09 1013.26 1013.79 1014.55 1014.77 1015.06 1015.10 1015.36 1015.63 1016.28 1016.39 1016.67 1016.77 1017.56 1017.94 1018.27 1018.50
1023.57 1023.19 1022.67 1022.19 1021.76 1021.26 1020.84 1020.21 1019.38 1018.57 1017.95 1017.58 1017.16 1016.84 1016.36 1015.80 1015.44 1015.71 1015.24 1014.77 1013.96 1013.93 1013.75 1012.42 1012.29 1011.84 1012.36 1012.57 1012.75 1012.42 1012.53 1012.82 1013.54 1014.22 1015.00 1015.11 1015.24 1015.41 1015.73 1016.31 1016.53 1016.80 1016.88 1017.52 1018.26 1018.60 1019.25
1023.68 1023.10 1022.72 1022.27 1021.53 1021.15 1020.67 1020.14 1019.50 1018.66 1018.20 1017.54 1016.86 1016.48 1016.35 1016.21 1016.29 1016.01 1015.14 1014.81 1014.69 1014.15 1013.82 1011.87 1011.90 1011.57 1011.92 1012.38 1012.31 1012.42 1012.32 1012.37 1013.21 1014.02 1014.72 1015.15 1015.42 1015.49 1015.90 1015.95 1016.08 1017.24 1017.36 1018.23 1018.75 1019.29 1019.52
1023.47 1023.08 1022.61 1022.00 1021.15 1020.85 1020.41 1019.97 1019.33 1018.72 1018.04 1017.33 1016.98 1016.22 1015.95 1016.09 1016.35 1015.35 1015.05 1014.88 1015.61 1015.22 1012.77 1011.54 1011.44 1011.84 1012.40 1012.30 1012.35 1012.58 1012.45 1012.69 1013.35 1013.99 1014.70 1015.39 1015.40 1015.50 1015.92 1016.52 1016.83 1017.72 1018.03 1018.96 1019.54 1020.09 1020.05
1023.25 1022.74 1022.36 1021.77 1021.06 1020.48 1020.06 1019.64 1019.12 1018.54 1017.83 1017.24 1016.55 1015.71 1015.73 1015.69 1015.35 1015.06 1015.20 1015.48 1016.14 1014.18 1011.25 1011.12 1011.37 1011.85 1012.60 1012.70 1012.79 1012.55 1012.76 1013.17 1013.29 1014.46 1015.26 1015.74 1015.83 1015.84 1015.85 1016.79 1017.57 1017.63 1018.26 1020.20 1020.86 1020.93 1020.01
1023.26 1022.78 1022.23 1021.55 1020.88 1020.31 1019.93 1019.41 1018.88 1018.23 1017.49 1016.86 1015.77 1015.13 1014.45 1014.55 1014.26 1014.91 1015.68 1015.72 1014.79 1011.77 1010.68 1010.19 1010.41 1011.83 1012.36 1012.66 1012.79 1012.90 1013.00 1013.40 1013.40 1013.53 1014.97 1015.79 1016.68 1016.00 1015.88 1016.25 1016.75 1017.78 1017.71 1018.98 1019.62 1020.51 1020.08
1023.58 1022.73 1021.96 1021.48 1020.76 1020.20 1019.71 1019.35 1018.75 1018.03 1017.12 1016.33 1015.42 1014.41 1013.93 1013.35 1013.65 1014.59 1015.58 1014.72 1011.21 1010.21 1009.97 1010.07 1010.44 1011.31 1012.29 1012.27 1012.60 1013.00 1013.26 1012.98 1012.68 1012.95 1013.42 1015.00 1015.89 1016.08 1016.15 1016.19 1016.34 1017.59 1018.22 1018.42 1019.09 1020.65 1020.26
1022.83 1022.43 1022.06 1021.59 1020.82 1020.10 1019.73 1019.08 1018.38 1017.64 1016.84 1015.92 1014.86 1013.85 1012.57 1012.28 1013.11 1014.15 1014.70 1011.90 1010.06 1008.50 1008.63 1009.52 1009.04 1009.30 1010.79 1011.79 1012.63 1012.88 1012.90 1011.49 1011.88 1011.92 1012.12 1013.54 1015.67 1016.51 1016.59 1016.59 1016.98 1017.05 1017.42 1018.32 1018.95 1020.24 1020.01
1022.51 1021.99 1021.77 1021.48 1020.82 1020.09 1019.69 1018.96 1018.30 1017.41 1016.55 1015.54 1014.14 1012.68 1010.96 1011.10 1012.34 1013.27 1011.31 1010.12 1009.22 1007.83 1007.57 1008.66 1008.63 1009.19 1009.64 1010.75 1011.54 1012.22 1011.70 1011.00 1010.83 1011.75 1012.07 1013.18 1014.27 1017.19 1017.05 1016.80 1016.72 1017.48 1017.41 1017.96 1018.26 1018.85 1018.84
1022.47 1021.89 1021.58 1021.30 1020.86 1020.20 1019.37 1018.73 1018.05 1017.36 1016.47 1015.57 1014.76 1013.32 1010.88 1011.28 1011.64 1010.60 1009.56 1008.92 1008.30 1007.52 1007.57 1007.29 1007.99 1008.09 1008.70 1009.52 1010.51 1011.19 1011.05 1010.33 1010.00 1010.51 1011.92 1012.56 1014.29 1016.61 1016.77 1016.65 1016.62 1016.63 1016.80 1017.04 1017.77 1019.09 1019.23
1022.60 1022.04 1021.50 1021.06 1020.59 1019.91 1019.21 1018.55 1017.81 1017.05 1016.57 1015.68 1015.07 1013.00 1010.55 1010.79 1008.49 1009.09 1008.76 1008.02 1007.70 1007.33 1007.15 1007.01 1007.20 1007.63 1007.88 1008.58 1009.61 1009.75 1009.70 1009.76 1009.90 1010.14 1010.56 1011.64 1013.27 1016.14 1017.12 1017.25 1017.05 1016.85 1016.71 1016.80 1017.25 1017.85 1018.31
1022.26 1021.82 1021.28 1020.67 1020.16 1019.58 1018.98 1018.34 1017.68 1016.87 1016.30 1016.15 1015.06 1012.87 1010.61 1009.66 1008.14 1006.88 1007.56 1007.24 1006.92 1006.38 1006.47 1006.46 1006.32 1007.09 1007.79 1008.28 1008.41 1009.18 1009.76 1009.89 1010.13 1010.19 1010.28 1010.71 1012.33 1013.07 1013.94 1014.19 1014.63 1016.06 1015.89 1016.34 1016.48 1017.72 1017.42
1022.08 1021.42 1020.78 1020.27 1019.73 1019.25 1018.76 1018.16 1017.59 1016.81 1016.11 1016.13 1015.11 1013.19 1011.18 1009.38 1007.98 1006.79 1006.49 1005.98 1006.05 1005.80 1005.79 1005.86 1006.35 1006.20 1006.80 1007.84 1008.59 1008.83 1009.44 1010.17 1010.49 1010.62 1010.91 1011.17 1012.71 1013.49 1014.06 1014.13 1014.28 1014.42 1014.75 1015.44 1015.94 1015.87 1016.07
1021.49 1021.03 1020.35 1019.86 1019.27 1018.88 1018.50 1017.89 1017.36 1016.69 1016.03 1015.86 1015.28 1014.28 1012.44 1010.61 1008.55 1006.93 1005.90 1005.01 1004.75 1005.07 1005.05 1005.24 1005.59 1005.33 1006.13 1006.48 1006.76 1007.95 1008.46 1009.31 1009.71 1011.08 1011.52 1011.86 1013.27 1013.79 1014.96 1014.81 1014.63 1014.64 1014.69 1015.02 1015.44 1015.58 1015.66
1021.01 1020.55 1019.99 1019.60 1019.04 1018.39 1018.04 1017.69 1017.16 1016.49 1016.03 1015.67 1015.06 1014.22 1013.38 1010.19 1008.45 1006.71 1004.63 1004.35 1003.84 1004.30 1004.28 1004.01 1004.35 1004.94 1005.70 1005.66 1006.19 1006.83 1007.62 1007.86 1008.47 1009.81 1011.32 1012.35 1013.46 1014.46 1015.61 1015.48 1015.25 1015.14 1013.87 1014.15 1014.39 1014.51 1014.86
1020.51 1019.96 1019.42 1018.92 1018.42 1017.95 1017.41 1017.02 1016.78 1016.17 1015.90 1015.96 1015.23 1014.10 1013.03 1010.63 1009.13 1007.20 1005.36 1004.16 1003.97 1003.65 1004.07 1004.42 1004.33 1004.59 1005.31 1005.35 1006.36 1007.17 1008.22 1008.90 1009.55 1010.58 1010.87 1012.10 1012.93 1014.11 1015.95 1015.71 1015.00 1012.97 1012.83 1012.95 1013.63 1014.03 1014.72
1020.02 1019.53 1018.70 1018.17 1017.67 1017.38 1016.89 1016.51 1016.17 1015.80 1015.12 1014.94 1014.74 1014.15 1012.83 1010.72 1009.13 1007.55 1006.33 1005.32 1004.34 1004.00 1004.29 1004.41 1004.52 1004.64 1004.54 1005.36 1006.99 1008.35 1009.33 1009.94 1010.87 1011.25 1011.45 1011.60 1012.21 1014.08 1014.99 1015.16 1014.01 1013.18 1012.85 1012.84 1013.07 1013.45 1014.28
1019.03 1018.49 1018.07 1017.38 1017.04 1016.65 1016.32 1015.89 1015.50 1015.14 1014.48 1014.19 1014.03 1013.77 1012.72 1011.39 1008.90 1008.57 1007.51 1006.17 1005.33 1004.72 1004.84 1004.79 1005.23 1005.10 1004.93 1005.64 1006.90 1008.06 1009.30 1009.71 1011.12 1011.64 1011.65 1011.66 1011.71 1012.56 1014.10 1014.06 1013.25 1012.33 1012.11 1012.20 1012.43 1013.79 1014.19
1018.31 1017.73 1017.21 1016.85 1016.27 1015.93 1015.51 1015.18 1014.82 1014.41 1013.94 1013.74 1013.28 1012.96 1012.80 1011.18 1009.21 1008.66 1008.18 1007.02 1005.82 1005.58 1005.51 1005.66 1005.61 1005.80 1005.38 1005.76 1007.16 1008.06 1008.93 1009.23 1010.35 1010.99 1011.62 1012.09 1012.36 1012.72 1013.29 1013.48 1012.96 1012.20 1012.41 1012.74 1013.69 1014.57 1014.59
1017.59 1017.01 1016.51 1016.04 1015.69 1015.30 1014.78 1014.49 1014.14 1013.61 1013.21 1012.99 1012.65 1012.26 1012.39 1010.77 1009.07 1008.63 1008.27 1008.07 1006.63 1006.05 1005.89 1006.19 1006.15 1005.92 1006.21 1006.36 1006.90 1007.70 1008.65 1009.37 1009.91 1010.43 1010.61 1010.93 1011.78 1012.70 1013.42 1013.81 1013.57 1012.79 1013.41 1013.75 1014.32 1015.02 1015.51
1016.80 1016.21 1015.75 1015.32 1015.00 1014.63 1014.16 1013.81 1013.41 1012.89 1012.49 1012.11 1011.99 1011.36 1011.40 1010.95 1009.34 1008.80 1008.32 1008.24 1007.97 1007.22 1006.46 1006.33 1006.24 1006.05 1006.06 1006.24 1006.94 1007.50 1008.75 1009.47 1009.86 1010.90 1010.68 1011.10 1010.69 1011.41 1012.68 1013.36 1013.57 1013.89 1014.08 1014.23 1014.56 1015.23 1016.76
Thickness
5611 5609 5609 5606 5604 5603 5602 5599 5596 5594 5592 5589 5584 5580 5575 5566 5557 5552 5548 5542 5538 5529 5520 5517 5521 5523 5522 5522 5533 5549 5561 5569 5580 5591 5604 5615 5623 5632 5629 5637 5640 5637 5655 5653 5665 5674 5678
5604 5603 5601 5602 5599 5598 5597 5594 5592 5591 5590 5587 5583 5580 5576 5570 5559 5552 5547 5547 5542 5534 5524 5519 5522 5523 5523 5523 5548 5552 5562 5567 5577 5588 5599 5613 5625 5634 5632 5640 5649 5646 5648 5648 5660 5667 5672
5596 5596 5594 5592 5594 5592 5591 5590 5588 5587 5587 5585 5584 5580 5577 5573 5566 5556 5548 5553 5549 5541 5530 5524 5524 5524 5523 5532 5550 5556 5563 5568 5577 5589 5598 5613 5623 5631 5635 5633 5640 5636 5638 5644 5652 5661 5665
5587 5588 5587 5586 5585 5586 5585 5585 5583 5583 5581 5581 5579 5577 5577 5574 5572 5564 5553 5555 5554 5549 5538 5530 5526 5527 5524 5545 5550 5557 5565 5569 5578 5589 5601 5610 5619 5619 5629 5627 5625 5627 5626 5635 5652 5654 5658
5580 5580 5578 5577 5578 5578 5578 5577 5577 5576 5576 5576 5578 5577 5574 5574 5573 5572 5562 5554 5565 5559 5548 5535 5528 5528 5533 5550 5552 5562 5568 5571 5578 5589 5599 5608 5613 5611 5618 5619 5613 5614 5629 5635 5648 5648 5654
5571 5572 5572 5571 5571 5571 5571 5572 5571 5572 5573 5572 5572 5574 5575 5572 5571 5574 5571 5562 5567 5569 5558 5544 5536 5531 5545 5552 5561 5567 5571 5577 5583 5588 5595 5600 5598 5601 5604 5614 5624 5627 5635 5637 5645 5647 5649
5563 5564 5566 5566 5567 5568 5568 5568 5568 5569 5568 5568 5569 5570 5572 5572 5570 5568 5575 5567 5559 5567 5564 5560 5552 5551 5558 5563 5568 5570 5575 5580 5586 5589 5589 5595 5598 5604 5615 5623 5634 5631 5638 5641 5640 5642 5645
5558 5558 5559 5561 5561 5561 5563 5566 5564 5564 5566 5567 5567 5566 5567 5571 5570 5567 5565 5571 5569 5580 5574 5571 5565 5559 5568 5571 5568 5573 5580 5581 5587 5584 5588 5590 5597 5611 5616 5619 5628 5632 5634 5632 5632 5635 5639
5550 5551 5552 5553 5552 5553 5554 5556 5560 5561 5561 5563 5565 5565 5566 5568 5571 5569 5563 5574 5578 5573 5575 5583 5575 5571 5570 5572 5573 5576 5582 5584 5584 5582 5590 5594 5610 5608 5617 5616 5624 5625 5630 5625 5636 5628 5629
5543 5543 5544 5544 5545 5545 5545 5547 5550 5554 5557 5558 5559 5561 5564 5566 5569 5564 5565 5568 5574 5572 5545 5585 5579 5578 5576 5577 5578 5585 5587 5591 5589 5585 5587 5598 5601 5609 5611 5614 5619 5621 5626 5623 5619 5624 5625
5533 5533 5532 5532 5535 5535 5537 5538 5540 5544 5546 5550 5555 5556 5556 5557 5555 5556 5564 5563 5563 5569 5526 5588 5583 5586 5580 5578 5582 5583 5589 5596 5589 5589 5593 5596 5595 5604 5609 5620 5621 5618 5616 5613 5612 5607 5614
5523 5522 5522 5522 5525 5523 5523 5525 5529 5532 5536 5540 5543 5548 5551 5549 5549 5555 5557 5557 5550 5535 5544 5585 5584 5579 5576 5583 5584 5583 5588 5589 5588 5590 5587 5591 5597 5604 5606 5597 5607 5597 5604 5597 5586 5594 5598
5512 5510 5508 5509 5512 5512 5512 5513 5514 5518 5524 5529 5534 5540 5541 5544 5546 5548 5548 5546 5525 5521 5591 5587 5582 5577 5576 5577 5580 5584 5583 5583 5585 5578 5582 5586 5591 5596 5600 5597 5597 5600 5601 5579 5583 5575 5600
5496 5495 5494 5494 5494 5495 5494 5497 5498 5503 5508 5515 5523 5531 5539 5540 5542 5537 5531 5532 5523 5575 5582 5593 5588 5573 5575 5576 5578 5579 5579 5580 5583 5586 5566 5575 5576 5587 5596 5600 5600 5592 5602 5586 5593 5582 5596
5476 5477 5476 5474 5476 5477 5478 5478 5481 5486 5492 5498 5509 5521 5528 5532 5530 5524 5513 5502 5561 5574 5585 5584 5590 5578 5570 5574 5575 5577 5569 5575 5588 5584 5597 5582 5587 5582 5590 5594 5600 5593 5586 5589 5565 5548 5577
5462 5458 5455 5453 5455 5457 5457 5458 5461 5466 5470 5478 5491 5502 5523 5517 5508 5502 5491 5535 5556 5583 5585 5579 5592 5589 5573 5563 5567 5562 5561 5591 5598 5592 5602 5592 5572 5572 5577 5583 5582 5588 5587 5586 5565 5570 5589
5446 5444 5438 5434 5435 5435 5434 5435 5436 5440 5444 5452 5465 5482 5510 5504 5482 5474 5497 5523 5559 5577 5584 5575 5578 5570 5580 5568 5563 5557 5576 5595 5595 5579 5591 5582 5577 5557 5568 5569 5576 5575 5581 5571 5575 5575 5583
5426 5426 5422 5417 5413 5411 5411 5410 5410 5409 5412 5416 5419 5437 5467 5470 5454 5463 5491 5511 5547 5561 5560 5576 5570 5577 5572 5565 5562 5556 5572 5582 5583 5584 5586 5582 5551 5532 5557 5564 5566 5574 5577 5577 5578 5572 5543
5406 5403 5401 5397 5392 5388 5384 5382 5379 5379 5375 5379 5380 5397 5430 5432 5455 5444 5467 5501 5524 5535 5546 5557 5562 5565 5566 5561 5579 5565 5567 5578 5572 5582 5584 5575 5547 5521 5546 5549 5549 5560 5565 5568 5553 5549 5550
5388 5383 5378 5374 5368 5364 5359 5356 5356 5357 5356 5351 5359 5385 5412 5422 5441 5470 5457 5481 5507 5522 5540 5545 5555 5552 5555 5563 5557 5555 5561 5567 5563 5573 5585 5583 5555 5575 5583 5588 5567 5556 5564 5559 5571 5539 5558
5369 5364 5357 5349 5342 5341 5338 5336 5338 5341 5341 5339 5349 5374 5397 5422 5436 5452 5462 5477 5497 5510 5520 5531 5536 5546 5550 5547 5544 5555 5552 5553 5560 5568 5561 5569 5544 5569 5558 5559 5568 5570 5564 5560 5557 5569 5576
5349 5340 5335 5328 5324 5322 5322 5322 5325 5327 5328 5330 5339 5349 5363 5378 5403 5435 5455 5468 5489 5508 5510 5521 5529 5547 5540 5543 5559 5550 5545 5547 5558 5547 5548 5543 5522 5500 5509 5543 5546 5563 5555 5555 5566 5563 5567
5327 5319 5312 5308 5308 5309 5310 5311 5313 5314 5315 5319 5327 5335 5342 5384 5404 5426 5459 5474 5486 5500 5510 5524 5531 5529 5531 5545 5548 5542 5540 5542 5550 5541 5530 5533 5509 5510 5537 5524 5521 5526 5551 5549 5554 5554 5566
5306 5301 5295 5295 5296 5299 5301 5303 5303 5304 5304 5305 5315 5327 5341 5372 5390 5417 5435 5464 5478 5488 5506 5503 5512 5526 5525 5522 5519 5522 5518 5516 5515 5511 5522 5514 5515 5505 5475 5491 5510 5561 5546 5552 5554 5550 5543
5289 5285 5285 5286 5288 5289 5292 5294 5296 5297 5300 5304 5309 5320 5334 5361 5384 5405 5418 5426 5459 5477 5485 5489 5496 5501 5509 5516 5499 5503 5497 5518 5498 5492 5503 5511 5518 5484 5500 5496 5530 5538 5532 5537 5548 5558 5533
5279 5277 5278 5281 5282 5282 5284 5286 5290 5292 5296 5298 5305 5313 5325 5342 5381 5382 5400 5418 5433 5449 5462 5467 5473 5482 5498 5499 5498 5494 5489 5505 5494 5493 5495 5509 5515 5513 5478 5503 5526 5543 5530 5533 5546 5540 5519
5272 5273 5275 5276 5278 5278 5280 5281 5284 5288 5290 5290 5299 5308 5315 5337 5363 5374 5391 5411 5427 5439 5446 5453 5461 5468 5481 5485 5486 5484 5486 5491 5488 5491 5493 5486 5494 5500 5498 5493 5504 5514 5512 5516 5529 5540 5505
5269 5271 5272 5274 5274 5275 5277 5278 5281 5285 5287 5287 5295 5305 5312 5332 5356 5371 5381 5391 5417 5431 5439 5440 5452 5457 5461 5475 5479 5477 5468 5472 5473 5476 5483 5492 5489 5485 5481 5465 5500 5489 5496 5511 5497 5474 5480
5270 5271 5271 5272 5272 5272 5274 5275 5278 5281 5284 5286 5291 5303 5313 5323 5349 5355 5369 5379 5387 5404 5425 5429 5441 5449 5458 5462 5457 5458 5464 5448 5467 5465 5474 5482 5496 5494 5495 5489 5463 5460 5467 5466 5468 5466 5451